Location: Austin
(30.3000°N, 97.7500°W)
Time: 00:48:02
(UTC-05:00)

Cosmos 1375 Rocket - Pass Details

Date: 15 May 2024
Orbit: 950 x 1017 km, 65.8° (Epoch: 19 May)

Event Time Altitude Azimuth Distance (km) Brightness Sun altitude
Rises 21:46:07 0° 204° (SSW) 3,660 7.4 -17.3°
Reaches altitude 10° 21:48:39 10° 204° (SSW) 2,725 6.7 -17.8°
Maximum altitude 21:55:04 89° 114° (ESE) 998 4.5 -18.9°
Drops below altitude 10° 22:01:37 10° 26° (NNE) 2,783 7.0 -20.0°
Sets 22:04:14 0° 27° (NNE) 3,743 7.7 -20.5°
